HST 1 20580U 90037B 25348.16361867 .00008710 00000+0 30099-3 0 9993 2 20580 28.4684 262.7979 0001796 257.7413 102.2981 15.28079920760215 POLAR 1 23802U 96013A 25340.48239671 .00000144 00000+0 00000+0 0 9995 2 23802 79.6240 229.2201 6278774 215.5988 78.9527 1.29846135142354 SWAS 1 25560U 98071A 25348.32299328 .00004963 00000+0 32853-3 0 9998 2 25560 69.8972 343.7050 0006517 213.3300 146.7454 15.07968953469388 CXO 1 25867U 99040B 25349.26321703 .00000427 00000+0 00000+0 0 9998 2 25867 53.0917 122.4070 8132318 310.8570 0.2053 0.37806491 16624 XMM-NEWTON 1 25989U 99066A 25348.86070804 .00000000 00000+0 00000+0 0 9996 2 25989 65.4202 285.4201 4741379 68.1367 0.1740 0.50134243 22088 TERRA 1 25994U 99068A 25348.31109007 .00000674 00000+0 14673-3 0 9994 2 25994 97.9749 39.9379 0003599 91.3882 338.4056 14.60904074382617 CLUSTER II-FM7 (SAMBA) 1 26410U 00041A 25350.13450001 .00003337 00000+0 00000+0 0 9991 2 26410 147.6610 25.4775 8760679 241.2157 359.9561 0.44829777 19494 CLUSTER II-FM8 (TANGO) 1 26464U 00045B 25348.77015114 .00003110 00000+0 00000+0 0 9992 2 26464 147.9375 25.9770 8766037 241.5722 359.9285 0.44419793 19473 ODIN 1 26702U 01007A 25348.06266546 .00034450 00000+0 58448-3 0 9999 2 26702 97.4226 16.0291 0005145 104.4115 255.7708 15.51411546360533 TIMED 1 26998U 01055B 25348.25048466 .00002135 00000+0 20027-3 0 9996 2 26998 74.0689 247.2312 0000997 216.1901 143.9216 14.94698196303184 CORIOLIS 1 27640U 03001A 25348.29300076 .00000195 00000+0 11256-3 0 9994 2 27640 98.7142 353.0027 0014511 29.4070 330.7920 14.19872836187982 SORCE 1 27651U 03004A 25348.03403611 .00004791 00000+0 36639-3 0 9998 2 27651 39.9902 237.0346 0016120 165.2281 194.8986 15.02299067244034 MOST 1 27843U 03031D 25348.27613161 .00000150 00000+0 88683-4 0 9992 2 27843 98.7067 353.5760 0010873 68.8675 291.3664 14.21270782164445 SCISAT 1 1 27858U 03036A 25348.24475753 .00000995 00000+0 13266-3 0 9994 2 27858 73.9284 178.7226 0008557 282.3566 77.6652 14.81121808204064 SWIFT 1 28485U 04047A 25348.15432113 .00037909 00000+0 61992-3 0 9991 2 28485 20.5523 153.8803 0003417 297.5365 62.4730 15.50674070157938 HINODE (SOLAR-B) 1 29479U 06041A 25348.32518634 .00001000 00000+0 18132-3 0 9994 2 29479 98.0650 2.1458 0018182 150.9514 209.2706 14.68305593 27746 SHIJIAN-6 02A (SJ-6 02A) 1 29505U 06046A 25348.37733744 .00011513 00000+0 63150-3 0 9995 2 29505 97.6628 23.1303 0004659 66.7956 293.3765 15.14324187 44274 SHIJIAN-6 02B (SJ-6 02B) 1 29506U 06046B 25348.35499828 .00003295 00000+0 26551-3 0 9998 2 29506 97.6888 13.9233 0013945 332.6738 27.3751 15.00543514 43016 FGRST (GLAST) 1 33053U 08029A 25348.24437725 .00004858 00000+0 18903-3 0 9997 2 33053 25.5833 47.4421 0007923 307.8081 52.1739 15.22610905967608 SDO 1 36395U 10005A 25347.27995576 -.00000068 00000+0 00000+0 0 9996 2 36395 34.2630 89.1775 0001064 141.1302 210.7149 1.00270164 58194 CRYOSAT 2 1 36508U 10013A 25348.30700492 .00000195 00000+0 47756-4 0 9991 2 36508 92.0259 232.5495 0002351 94.8936 265.2540 14.51903512831255 X-SAT 1 37389U 11015C 25348.30001906 .00000254 00000+0 12565-3 0 9991 2 37389 98.3313 329.3612 0014233 161.2655 198.9052 14.25130157761348 GCOM-W1 (SHIZUKU) 1 38337U 12025A 25348.33115527 .00000949 00000+0 22051-3 0 9997 2 38337 98.2216 286.5181 0001413 68.7726 94.9128 14.57128574722110 NUSTAR 1 38358U 12031A 25348.33336806 .00016834 00000+0 10498-2 0 9993 2 38358 6.0280 338.4274 0009434 242.4225 311.3237 15.06431913 1304 NEOSSAT 1 39089U 13009D 25348.32600199 .00000304 00000+0 11981-3 0 9993 2 39089 98.4074 167.8162 0012114 78.8014 281.4533 14.35731557670214 BRITE-AUSTRIA 1 39091U 13009F 25348.06767275 .00000328 00000+0 12632-3 0 9996 2 39091 98.3887 167.1539 0011317 74.6865 285.5572 14.36436813670475 IRIS 1 39197U 13033A 25348.28269977 .00002495 00000+0 29554-3 0 9998 2 39197 97.9392 183.0650 0024060 201.1900 158.8321 14.85288609672923 HISAKI (SPRINT-A) 1 39253U 13049A 25347.97399188 .00000138 00000+0 98681-4 0 9991 2 39253 29.7206 81.6260 0136982 315.3490 43.6121 13.55521587606277 CASSIOPE 1 39265U 13055A 25348.29245572 .00046387 -14799-6 61617-3 0 9996 2 39265 80.9212 289.0620 0341018 320.1332 37.5281 15.11637989639607 STSAT-3 1 39422U 13066G 25348.32517573 .00005289 00000+0 41375-3 0 9997 2 39422 97.6004 316.6627 0013742 309.1387 50.8615 15.01401135656459 SWARM B 1 39451U 13067A 25348.30258663 .00004519 00000+0 16921-3 0 9994 2 39451 87.7447 38.3851 0003219 84.5803 275.5813 15.27032390655012 SWARM A 1 39452U 13067B 25348.30761167 .00013009 00000+0 26124-3 0 9993 2 39452 87.3359 124.6861 0002231 89.6325 270.5189 15.46525255677630 SWARM C 1 39453U 13067C 25348.30751931 .00013258 00000+0 26626-3 0 9995 2 39453 87.3357 123.2711 0002227 89.7424 270.4090 15.46524019677596 BRITE-CA1 (TORONTO) 1 40020U 14033L 25348.33939020 .00001902 00000+0 29461-3 0 9994 2 40020 97.9487 116.0374 0079968 147.9776 212.6327 14.72217801615013 OCO 2 1 40059U 14035A 25348.29647411 .00000845 00000+0 19789-3 0 9990 2 40059 98.2217 287.2292 0001239 96.9487 263.1852 14.57049682609120 BRITE-PL2 (HEWELIUSZ) 1 40119U 14049B 25348.27457476 .00002161 00000+0 20969-3 0 9995 2 40119 97.8992 94.1468 0014431 8.3301 351.8155 14.93667269613833 MMS 1 1 40482U 15011A 25348.33336806 -.00000236 00000+0 00000+0 0 9990 2 40482 69.2587 351.5296 8503627 163.3741 164.0333 0.28349735 1387 MMS 2 1 40483U 15011B 25348.33336806 -.00000236 00000+0 00000+0 0 9991 2 40483 69.2561 351.5202 8505084 163.3907 164.0000 0.28349728 1383 MMS 3 1 40484U 15011C 25348.33336806 -.00000236 00000+0 00000+0 0 9992 2 40484 69.2607 351.5367 8505031 163.3865 163.9956 0.28349725 1387 MMS 4 1 40485U 15011D 25348.33336806 -.00000236 00000+0 00000+0 0 9993 2 40485 69.2629 351.5284 8506567 163.3736 164.0341 0.28350201 1372 ASTROSAT 1 40930U 15052A 25348.33201426 .00002401 00000+0 21288-3 0 9992 2 40930 5.9979 45.5072 0008938 275.5154 84.3954 14.82023546552355 DAMPE 1 41173U 15078A 25348.27360769 .00003103 00000+0 10877-3 0 9991 2 41173 97.4549 347.9298 0012847 19.8808 340.2930 15.30165457556266 PISAT 1 41784U 16059B 25347.97982080 .00001630 00000+0 28729-3 0 9999 2 41784 97.8160 351.4856 0030691 77.8129 282.6512 14.68498924492558 HXMT (HUIYAN) 1 42758U 17034A 25348.30598253 .00005556 00000+0 29052-3 0 9999 2 42758 43.0127 130.9361 0031378 53.5608 306.8125 15.16263189469575 FLYING LAPTOP 1 42831U 17042G 25348.33642962 .00004608 00000+0 37490-3 0 9992 2 42831 97.4236 146.8836 0014958 44.2388 316.0029 14.99926113458736 ZHANGHENG 1-01 (CSES-1) 1 43194U 18015C 25348.38455363 .00012039 00000+0 54417-3 0 9993 2 43194 97.6652 145.5892 0018066 199.8672 160.1861 15.20953412436553 SALSAT 1 46495U 20068K 25347.97394729 .00010073 00000+0 39011-3 0 9992 2 46495 97.8786 335.3129 0008978 224.0796 135.9726 15.26353387287073 IXPE 1 49954U 21121A 25348.33336806 .00015409 00000+0 91320-3 0 9998 2 49954 0.2309 273.5202 0007727 168.6143 288.2840 15.08002399 5431